Powrót do katalogu

BREEZE-M DEB

LostHEO
NORAD 34248·DEBRIS·🇷🇺 Russia

Wystrzelony Feb 28, 2006 z Baikonur Cosmodrome

Loading…

Następne Przeloty (najbliższe 24 godziny)

TLE

NieaktualneSource: Space-Track

Epoka: Jun 27, 2026, 10:21 UTC

1 34248U 06006BP  26178.43184956  .00010417  00000-0  53283-2 0  9993
2 34248  51.6795 194.7618 4633339 168.5352 207.5176  6.11236934 44688

Śledź BREEZE-M DEB w czasie rzeczywistym z AllMySat

Download on the App Store